KJ7AZ-3 Weather Reports


Display with metric or nautical units.
time (UTC)temp
F
wind
direction
speed
MPH
gust
MPH
rain 1hr
in
rain 24hr
in
rain mn
in
humidity
%
barometer
mb
20260906143436 79 359 0.0 0.0 0.00 0.00 0.01
20260906141936 81 349 0.0 0.0 0.00 0.00 0.01
20260906140436 78 124 0.0 0.0 0.00 0.00 0.01
20260906134937 76 124 0.0 0.0 0.00 0.00 0.01
20260906133436 74 124 0.0 0.0 0.00 0.00 0.01
20260906130436 64 124 0.0 0.0 0.00 0.00 0.01
20260906123437 62 124 0.0 0.0 0.00 0.00 0.01
20260906120437 63 124 0.0 0.0 0.00 0.00 0.01
20260906113437 61 124 0.0 0.0 0.00 0.00 0.01
20260906111938 64 124 0.0 0.0 0.00 0.00 0.01
20260906110437 65 124 0.0 0.0 0.00 0.00 0.01
20260906104937 63 124 0.0 0.0 0.00 0.00 0.01
20260906103437 63 124 0.0 0.0 0.00 0.00 0.01
20260906101937 65 124 0.0 0.0 0.00 0.00 0.01
20260906100437 66 124 0.0 0.0 0.00 0.00 0.01
20260906094937 67 124 0.0 0.0 0.00 0.00 0.01
20260906093437 67 124 0.0 0.0 0.00 0.00 0.01
20260906090437 67 124 0.0 0.0 0.00 0.00 0.01
20260906083437 67 124 0.0 0.0 0.00 0.00 0.01
20260906081937 69 124 0.0 0.0 0.00 0.00 0.01
20260906080437 69 124 0.0 0.0 0.00 0.00 0.01
20260906074937 70 124 0.0 0.0 0.00 0.00 0.01
20260906073437 69 124 0.0 0.0 0.00 0.00 0.01
20260906071937 69 124 0.0 0.0 0.00 0.00 0.01
20260906070437 67 124 0.0 0.0 0.00 0.00 0.01
20260906064937 69 124 0.0 0.0 0.00 0.00 0.01
20260906063437 69 124 0.0 0.0 0.00 0.00 0.01
20260906061937 69 124 0.0 0.0 0.00 0.00 0.01
20260906060437 68 124 0.0 0.0 0.00 0.00 0.01
20260906054937 67 124 0.0 0.0 0.00 0.00 0.01
20260906053437 67 124 0.0 0.0 0.00 0.00 0.01
20260906051937 67 124 0.0 0.0 0.00 0.00 0.01
20260906050437 68 124 0.0 0.0 0.00 0.00 0.01
20260906044937 67 124 0.0 0.0 0.00 0.00 0.01
20260906043437 68 124 0.0 0.0 0.00 0.00 0.01
20260906040436 68 111 0.0 0.0 0.00 0.00 0.01
20260906033436 69 111 0.0 0.0 0.00 0.00 0.01
20260906030435 68 111 0.0 0.0 0.00 0.00 0.01
20260906023435 69 111 0.0 0.0 0.00 0.00 0.01
20260906020435 69 111 0.0 0.0 0.00 0.00 0.01
20260906014935 71 111 0.0 0.0 0.00 0.00 0.01
20260906013432 74 111 0.0 0.0 0.00 0.00 0.01
20260906011932 76 111 0.0 0.0 0.00 0.00 0.01
20260906010432 81 111 0.0 0.0 0.00 0.00 0.01
20260906004931 83 153 0.0 2.0 0.00 0.00 0.01
20260906003431 82 51 0.0 0.0 0.00 0.00 0.01
20260906001930 80 136 3.0 2.0 0.00 0.00 0.01
20260905230429 80 128 4.0 4.0 0.00 0.00 0.01
20260905224928 85 53 7.0 3.0 0.00 0.00 0.01
20260905221928 86 83 6.0 6.0 0.01 0.00 0.01
20260905211924 83 51 6.0 5.0 0.00 0.00 0.01
20260905210423 86 332 0.0 0.0 0.00 0.00 0.00
20260905204922 88 260 2.0 1.0 0.00 0.00 0.00
20260905203422 89 8 3.0 2.0 0.00 0.00 0.00
20260905201921 91 319 1.0 2.0 0.00 0.00 0.00
20260905200421 89 321 1.0 3.0 0.00 0.00 0.00
20260905193419 87 342 2.0 4.0 0.00 0.00 0.00
20260905191919 88 34 1.0 0.0 0.00 0.00 0.00
20260905190418 86 335 1.0 4.0 0.00 0.00 0.00
20260905181917 87 359 5.0 6.0 0.00 0.00 0.00
20260905174916 86 330 2.0 1.0 0.00 0.00 0.00
20260905173416 87 235 2.0 3.0 0.00 0.00 0.00
20260905171916 88 13 2.0 3.0 0.00 0.00 0.00
20260905170415 86 248 2.0 0.0 0.00 0.00 0.00
20260905164915 85 10 0.0 0.0 0.00 0.00 0.00
20260905163415 85 359 0.0 1.0 0.00 0.00 0.00
20260905154914 83 297 0.0 0.0 0.00 0.00 0.00
20260905153414 84 314 0.0 0.0 0.00 0.00 0.00
20260905151913 84 284 0.0 0.0 0.00 0.00 0.00
20260905150413 83 256 0.0 0.0 0.00 0.00 0.00